Kaiser, MO

3:49 PM CDT on September 23, 2019 (GMT -0500)
Fine Memorial

Weather History for KAIZ - August, 2019

Change the Weather History Date:

Saturday, August 24, 2019

  Actual Average Record
Temperature  
Mean Temperature 70 °F -  
Max Temperature 75 °F 85 °F 100 °F (2014)
Min Temperature 66 °F 63 °F 51 °F (2015)
Cooling Degree Days 6    
Growing Degree Days 20 (Base 50)    
Moisture  
Dew Point 63 °F    
Average Humidity 79    
Maximum Humidity 93    
Minimum Humidity 64    
Precipitation  
Precipitation 0.00 in - - ()
Sea Level Pressure  
Sea Level Pressure 30.08 in    
Wind  
Wind Speed 6 mph ()    
Max Wind Speed 10 mph    
Max Gust Speed 17 mph    
Visibility 10.0 miles    
Events Rain    
Averages and records for this station are not official NWS values.
T = Trace of Precipitation, MM = Missing Value Source: Averaged Metar Reports

Daily Weather History Graph

Daily Weather History Graph

Search for Another Location

Airport or City:

Astronomy

Aug. 24, 2019 Rise Set
Actual Time 6:32 AM CDT 7:51 PM CDT
Civil Twilight 6:05 AM CDT 8:19 PM CDT
Nautical Twilight 5:32 AM CDT 8:51 PM CDT
Astronomical Twilight 4:57 AM CDT 9:26 PM CDT
Moon 12:28 AM CDT (8/24) 3:05 PM CDT (8/24)
Length of Visible Light 14h 13m
Length of Day
13h 18m
Last Quarter, 39% of the Moon is Illuminated
Aug 24
Last Quarter
Aug 30
New
Sep 5
First Quarter
Sep 13
Full
Sep 21
Last Quarter

Hourly Weather History & Observations

Time (CDT) Temp. Dew Point Humidity Pressure Visibility Wind Dir Wind Speed Gust Speed Precip Events Conditions
12:56 AM 69.1 °F 66.0 °F 90% 30.09 in 10.0 mi ENE 5.8 mph - N/A   Scattered Clouds
1:56 AM 69.1 °F 66.0 °F 90% 30.10 in 10.0 mi ENE 6.9 mph - N/A   Overcast
2:56 AM 69.1 °F 66.0 °F 90% 30.10 in 10.0 mi ENE 9.2 mph - N/A   Overcast
3:56 AM 68.0 °F 64.9 °F 90% 30.09 in 10.0 mi ENE 6.9 mph - N/A   Overcast
4:56 AM 68.0 °F 64.9 °F 90% 30.09 in 10.0 mi ENE 6.9 mph - N/A   Overcast
5:56 AM 66.9 °F 64.9 °F 93% 30.10 in 10.0 mi ENE 6.9 mph - N/A   Overcast
6:56 AM 66.9 °F 64.0 °F 90% 30.12 in 10.0 mi ENE 6.9 mph - N/A   Overcast
7:56 AM 66.9 °F 64.0 °F 90% 30.13 in 10.0 mi ENE 8.1 mph - 0.00 in   Overcast
8:56 AM 68.0 °F 64.0 °F 87% 30.12 in 10.0 mi East 9.2 mph - N/A   Overcast
9:56 AM 70.0 °F 62.1 °F 76% 30.12 in 10.0 mi East 9.2 mph - N/A   Overcast
10:56 AM 71.1 °F 62.1 °F 73% 30.12 in 10.0 mi East 9.2 mph - N/A   Overcast
11:56 AM 72.0 °F 60.1 °F 66% 30.10 in 10.0 mi East 9.2 mph - N/A   Overcast
12:56 PM 73.0 °F 60.1 °F 64% 30.09 in 10.0 mi ESE 10.4 mph 17.3 mph N/A   Mostly Cloudy
1:56 PM 73.9 °F 61.0 °F 64% 30.08 in 10.0 mi ESE 6.9 mph - N/A   Scattered Clouds
2:56 PM 75.0 °F 62.1 °F 64% 30.06 in 10.0 mi ESE 9.2 mph - 0.00 in   Mostly Cloudy
3:56 PM 73.9 °F 62.1 °F 66% 30.05 in 10.0 mi East 8.1 mph - N/A   Overcast
4:56 PM 73.0 °F 62.1 °F 68% 30.05 in 10.0 mi East 8.1 mph - 0.00 in Rain Light Rain
5:56 PM 73.0 °F 62.1 °F 68% 30.04 in 10.0 mi East 8.1 mph - 0.00 in   Overcast
6:56 PM 72.0 °F 62.1 °F 71% 30.04 in 10.0 mi East 6.9 mph - N/A   Overcast
7:56 PM 71.1 °F 63.0 °F 75% 30.05 in 10.0 mi East 3.5 mph - N/A   Overcast
8:56 PM 70.0 °F 63.0 °F 78% 30.05 in 10.0 mi ESE 3.5 mph - N/A   Overcast
9:56 PM 68.0 °F 63.0 °F 84% 30.06 in 10.0 mi Calm Calm - 0.00 in   Overcast
10:56 PM 68.0 °F 63.0 °F 84% 30.06 in 10.0 mi East 4.6 mph - N/A   Overcast
11:56 PM 68.0 °F 63.0 °F 84% 30.05 in 10.0 mi Calm Calm - N/A   Overcast